STARLINK-4542, 53435

Orbit data source: Space-Track

STARLINK-4542, 53435 is a payload satellite owned by SpaceX/Seattle (US) in LEO that was launched on Wed, 10 Aug 2022 UTC via an FALCON 9 launch vehicle from the Air Force Eastern Test Range (AFETR). Payload-class satellites include a variety of spacecraft equipped with specific instruments for various scientific and technological missions. These include communications satellites like Starlink; space stations such as the ISS; scientific satellites like the Hubble; Earth observation satellites from companies like Planet Labs, Umbra, and HawkEye 360; GPS; miniature CubeSats for education and research; and military/defense satellites.

Loading next visibility...
Identifier
53435, 2022-097AZ
Orbit
LEO
Country
Flag of USUS
Related business
Manufacturer
SpaceX/Seattle
Mission
Operational Commercial Communications
Bus & Motor
STARLINK, Unknown motor
Mass
297 kg wet, ~275 kg dry
Launch date (UTC)
2022-08-10 (4 years ago)
Launch vehicle
FALCON 9
Launch site
Air Force Eastern Test Range (AFETR)
Object type
Payload
Rocket body
Debris
Shape & HBR
Box + 1 Pan, 10.1 m
Radar Cross Section
13.562 m², Large (>1 m²)

Expand to show TLE details & history
Last TLE update: 21 hours ago

TLE from 21 hours ago
0 STARLINK-4542
1 53435U 22097AZ  26144.11748785  .00002460  00000-0  17269-3 0  9998
2 53435  53.2162 125.3136 0001539  89.1129 271.0040 15.08825718210158
Epoch: 2026-05-24T02:49Z
TLE epoch observation values (Epoch: 2026-05-24T02:49:10.950Z)
Latitude
0.00003°
Longitude
-158.70623°
Altitude
540.666 km
Speed
7.593 km/s
True Right ascension
08h 21m 15s
True Declination
0° 00' 00"
Sunlit
Object was in daylight at epoch
Visualization orbit readout
Latitude
Unknown
Longitude
Unknown
Altitude
Unknown
Speed
Unknown
Apparent Right ascension
Unknown
Apparent Declination
Unknown
Sunlit
N/A
Visualization observer readout
Local Sidereal Time
09:25:50
Azimuth
Unknown
Elevation
Unknown
Doppler factor
Unknown
Orbital elements
Apogee altitude
541.097 km
Perigee altitude
538.967 km
Semi-major axis
6,918.169 km
Eccentricity
0.00015
Inclination
53.2162°
RAAN
125.3136°
Arg. of periapsis
89.1129°
True anomaly
270.98637°
Mean anomaly
271.004°
Eccentric anomaly
270.99518°
Mean motion
3.77187 °/min
Orbital period
95.44 mins
BSTAR
0.00017269
Loading maneuver chart data...
Computing Atmospheric mass density...
Loading historical data...
Loading historical data...
Loading historical data...
Loading historical data...
Loading historical data...
Loading historical data...
Loading historical data...

Documentation

Showing up to 5 results
|